Home > Weather > Chengdu > Past weeks

Flag for China Weather for the Past 2 Weeks in Chengdu, Sichuan, China

Now
32 °F

Clear.


Feels Like: 32 °F
Forecast: 35 / 49 °F
Wind: No wind

Location: Chengdu Airport

Current Time: Feb 15, 2016 at 5:22:01 AM

Latest Report: Feb 15, 2016 at 5:00 AM


Visibility: 10 mi

Pressure: 30.48 "Hg

Humidity: 93%

Dew point: 30 °F

Location of ChengduLocation

Historic Weather in Chengdu — Graph

°F

Chengdu Temperature Yesterday

Maximum temperature yesterday: 45 °F (at 5:00 PM)
Minimum temperature yesterday: 37 °F (at 7:00 AM)
Average temperature yesterday: 41 °F

High & Low Weather Summary for the Past Weeks

 TemperatureHumidityPressure
High66 °F (Feb 12, 2:00 PM)100% (Feb 3, 10:00 AM)30.57 "Hg (Feb 3, 10:00 AM)
Low34 °F (Feb 7, 7:00 AM)28% (Feb 13, 8:00 AM)29.62 "Hg (Feb 12, 3:00 PM)
Average48 °F66%30.19 "Hg
* Reported Jan 31 4:00 AM — Feb 15 4:00 AM, Chengdu, Weather by CustomWeather, © 2016

Note: Actual official high and low records may vary slightly from our data, if they occured in-between our weather recording intervals... More about our weather records

Advertising

Chengdu Weather History for the Previous 24 Hours

 ConditionsComfort  
Time TempWeatherWind HumidityBarometerVisibility
4:00 AM
Mon, Feb 15
34 °FClear.No wind87%30.51 "Hg10 mi
3:00 AM36 °FClear.No wind87%30.51 "Hg10 mi
2:00 AM39 °FClear.1 mph75%30.51 "Hg10 mi
1:00 AM37 °FClear.3 mph87%30.54 "Hg5 mi
12:00 AM41 °FClear.1 mph81%30.54 "Hg5 mi
11:00 PM
Sun, Feb 14
41 °FClear.3 mph81%30.57 "Hg5 mi
10:00 PM39 °FClear.1 mph87%30.54 "Hg10 mi
9:00 PM41 °FPassing clouds.3 mph81%30.51 "HgN/A
8:00 PM41 °FClear.No wind76%30.48 "Hg10 mi
7:00 PM41 °FPassing clouds.3 mph81%30.45 "HgN/A
6:00 PM43 °FPassing clouds.3 mph71%30.42 "HgN/A
5:00 PM45 °FScattered clouds.6 mph66%30.39 "HgN/A
4:00 PM43 °FPassing clouds.6 mph71%30.39 "HgN/A
3:00 PM41 °FLight rain. Scattered clouds.1 mph81%30.39 "HgN/A
2:00 PM41 °FLight rain. Scattered clouds.3 mph81%30.42 "HgN/A
1:00 PM41 °FLight rain. Scattered clouds.6 mph76%30.45 "HgN/A
12:00 PM41 °FLight rain. Scattered clouds.3 mph76%30.45 "HgN/A
11:00 AM41 °FLight rain. Partly sunny.6 mph81%30.45 "HgN/A
10:00 AM39 °FLight rain. Partly sunny.3 mph87%30.45 "HgN/A
9:00 AM39 °FLight rain. Partly sunny.3 mph93%30.42 "Hg5 mi
8:00 AM37 °FLight rain. Partly sunny.No wind100%30.39 "Hg4 mi
7:00 AM37 °FLight rain. Passing clouds.3 mph93%30.36 "Hg4 mi
6:00 AM39 °FLight rain. Passing clouds.3 mph81%30.33 "HgN/A
5:00 AM39 °FLight rain. Passing clouds.3 mph75%30.33 "HgN/A
Weather by CustomWeather, © 2016

See weather overviewHow to use our weather pages